Other Public Products
Issued by NWS Grand Forks, ND

Home | Current Version | Previous Version | Graphics & Text | Print | Product List | Glossary On
Versions: 1 2 3 4 5 6 7 8 9 10 11 12 13 14 15 16 17 18 19 20 21 22 23 24 25 26 27 28 29 30 31 32 33 34 35 36 37 38 39 40 41 42 43 44 45 46 47 48 49 50
201
FPUS83 KFGF 261031
OPUFGF
PRAIRIE TO PINES WEATHER ROUNDUP
NATIONAL WEATHER SERVICE EASTERN NORTH DAKOTA/GRAND FORKS ND
500 AM CDT WED APR 26 2017

 **SATELLITE DATA USED TO AUGMENT SKY COVER AT AUTOMATED STATIONS**
 *****  WEATHER ACROSS EASTERN NORTH DAKOTA  *****

CITY           SKY/WX    TMP DP  RH WIND       PRES   REMARKS
GRAND FORKS    CLOUDY    32  26  78 NE20G30   29.84S WCI  20
GRAND FORKS AF CLOUDY    30  24  76 NE18G25   29.84F WCI  18
GRAND CITY NWS NOT AVBL
BUXTON           N/A     29  29  96 N17         N/A  WCI  18
DEVILS LAKE    CLOUDY    28  23  81 NE17G24   29.88S WCI  16
FARGO          MIX PCPN  31  28  89 N18       29.76R WCI  19
WAHPETON ARPT  CLOUDY    32  30  93 N12G17    29.69F WCI  23
$$

 *****  WEATHER ACROSS CENTRAL AND WESTERN NORTH DAKOTA  *****

CITY           SKY/WX    TMP DP  RH WIND       PRES   REMARKS
JAMESTOWN      CLOUDY    29  26  89 N17       29.80F WCI  17
BISMARCK       FAIR      33  24  69 N15       29.87F WCI  23
MINOT          FAIR      27  21  78 N10       29.94S WCI  17
MINOT AFB      FAIR      27  20  73 N10       29.94S WCI  17
GARRISON         N/A     28  22  78 N7        29.91S WCI  21
WILLISTON      FAIR      25  21  85 N6        29.97S WCI  18
DICKINSON      CLOUDY    30  24  78 N6        29.88S WCI  24
HETTINGER      CLOUDY    30  25  81 N7        29.88S WCI  23
$$

 *****  OTHER OBSERVATIONS NORTHEAST NORTH DAKOTA  *****

CITY           SKY/WX    TMP DP  RH WIND       PRES   REMARKS
WALHALLA       NOT AVBL
LANGDON        FAIR      27  25  93 NE16      29.88F WCI  14
CAVALIER       CLOUDY    30  23  74 N14G20    29.90F WCI  20
GRAFTON        CLOUDY    30  27  86 N16       29.89S WCI  19
CANDO          NOT AVBL
FORT TOTTEN      N/A     28  23  80 NE10      29.95S WCI  19
ROLLA          FAIR      25  23  93 N15       29.92R WCI  12
RUGBY          NOT AVBL
 ***** THE ABOVE OBSERVATIONS ARE NON NWS ARE NOT QUALITY
        CONTROLLED AND MAY MIS-REPORT RAIN FOR SNOW...
$$

 *****  OTHER OBSERVATIONS SOUTHEAST NORTH DAKOTA *****

CITY           SKY/WX    TMP DP  RH WIND       PRES   REMARKS
COOPERSTOWN    CLOUDY    28  27  93 N21G26    29.80F WCI  15
VALLEY CITY    LGT RAIN  28  28 100 N21G28    29.79F WCI  15
OAKES          NOT AVBL
GWINNER        CLOUDY    30  28  93 MISG      29.73F FOG
SHEYENNE NWR     N/A     29  27  92 N13       29.95S WCI  19
BUFFALO          N/A     29  26  91 S13         N/A  WCI  18
WYNDMERE         N/A     30  30 100 N16         N/A  WCI  19
 ***** THE ABOVE OBSERVATIONS ARE NON NWS ARE NOT QUALITY
       CONTROLLED AND MAY MIS-REPORT RAIN FOR SNOW...
$$

  *****  WEATHER ACROSS NORTHERN MINNESOTA  *****

CITY           SKY/WX    TMP DP  RH WIND       PRES   REMARKS
FLAG ISLAND    CLOUDY    27  19  74 NE23G30   29.89S WCI  12
WARROAD        CLOUDY    28  23  80 NE18G32   29.87S WCI  16
ROSEAU         CLOUDY    28  23  80 NE21G26   29.87R WCI  15
HALLOCK        CLOUDY    30  25  80 NE13      29.88F WCI  20
THF RVR FALLS  CLOUDY    28  23  81 NE21      29.80F WCI  15
HALSTAD          N/A     29  27  91 N20         N/A  WCI  16
FOSSTON        MIX PCPN  27  25  93 NE15G22   29.75F WCI  15
BAUDETTE       CLOUDY    25  19  78 NE17G23   29.84S WCI  12
WASKISH        CLOUDY    25  23  93 NE12G21   29.79F WCI  14
CROOKSTON      CLOUDY    30  27  86 NE14      29.81F WCI  20
$$
  *****  WEATHER ACROSS CENTRAL AND WEST MINNESOTA  *****

CITY           SKY/WX    TMP DP  RH WIND       PRES   REMARKS
BEMIDJI        LGT SNOW  26  24  93 NE12      29.73F WCI  15
PARK RAPIDS    MIX PCPN  29  24  82 N12G22    29.66F WCI  19
WADENA         MIX PCPN  30  28  93 NE10      29.63F WCI  21
DETROIT LAKES  MIX PCPN  32  30  93 NE8       29.68F WCI  25
MOORHEAD       LGT RAIN  30  27  86 N9        29.74S WCI  22
FERGUS FALLS   MIX PCPN  32  32 100 N9        29.66F WCI  24
ELBOW LAKE     CLOUDY    32  32  98 N12       29.64F WCI  23
MORRIS MN      CLOUDY    34  32  93 N16G23    29.62F FOG     WCI  23
STAPLES        MIX PCPN  28  28 100 CALM      29.62F
WHEATON        MIX PCPN  32  30  93 NW15G24   29.68F WCI  22
$$
  *****  WEATHER ELSEWHERE ACROSS MINNESOTA  *****

CITY           SKY/WX    TMP DP  RH WIND       PRES   REMARKS
DULUTH         FRZ RAIN  31  29  92 E17       29.63F WCI  19
INTRNTL FALLS  CLOUDY    24  19  81 NE9G22    29.81S WCI  14
ELY            FLURRIES  23  21  93 NE10G17   29.72S WCI  12
CLOQUET        LGT SNOW  32  28  86 NE9G17    29.62F WCI  24
BRAINERD       MIX PCPN  31  29  92 NE18G25   29.61F FOG     WCI  19
HIBBING        MIX PCPN  25  24  96 NE12      29.68F FOG     WCI  14
ALEXANDRIA     CLOUDY    32  30  92 NE18      29.60F WCI  20
SAINT CLOUD    LGT RAIN  37  35  92 N15G22    29.54F
MINNEAPOLIS    LGT RAIN  40  37  89 N14       29.48S
$$

  *****  WEATHER ACROSS SOUTH DAKOTA  *****

CITY           SKY/WX    TMP DP  RH WIND       PRES   REMARKS
SIOUX FALLS    CLOUDY    36  35  96 NW15      29.62R
BROOKINGS      CLOUDY    32  31  96 N13       29.62R WCI  22
WATERTOWN      CLOUDY    30  28  92 N20       29.63F WCI  17
HURON          CLOUDY    31  30  96 N20G25    29.70F WCI  19
SISSETON         N/A     31  30  96 N20       29.68F WCI  19
ABERDEEN       LGT SNOW  30  27  88 N17G25    29.74F FOG     WCI  18
MITCHELL       CLOUDY    33  32  96 NW16G24   29.72R WCI  23
PIERRE         CLOUDY    32  28  85 NW15      29.78F WCI  22
MOBRIDGE       CLOUDY    34  23  64 N17G25    29.78F WCI  23
RAPID CITY     CLOUDY    28  24  85 NW17      29.85F WCI  16
$$

  *****  SOME WEATHER IN NEARBY STATES *****

CITY           SKY/WX    TMP DP  RH WIND       PRES   REMARKS
GLASGOW MT     CLOUDY    35  25  66 SE12      29.89F
GREAT FALLS MT FAIR      32  31  96 S3        29.76F
CHEYENNE WY    CLOUDY    32  23  69 NW14      29.80R WCI  22
SCOTTSBLUFF NE CLOUDY    33  25  72 NW13      29.84S WCI  24
OMAHA NE       DRIZZLE   38  34  85 NW15G25   29.62R FOG
DES MOINES IA  CLOUDY    46  42  86 NW18G24   29.48S
DAVENPORT IA   FAIR      61  55  81 SW8       29.39F
CHICAGO IL     CLOUDY    65  54  67 S12       29.47F
EAU CLAIRE WI  LGT RAIN  44  43  96 NE9       29.42F
LA CROSSE WI   MOCLDY    57  54  89 E5        29.38F
$$

  *****  SOME NATIONAL WEATHER *****

CITY           SKY/WX    TMP DP  RH WIND       PRES   REMARKS
LA GUARDIA NY  LGT RAIN  55  52  89 NE13      29.75S FOG
RALEIGH NC     MOCLDY    57  55  93 CALM      29.78R
ATLANTA GA     FAIR      60  55  83 SW3       29.77R
NEW ORLEANS LA MOCLDY    70  63  78 S8        29.67F
OKLAHOMA CITY  CLOUDY    49  45  86 N25G36    29.54S
ALBUQUERQUE NM FAIR      43  31  62 NE7       29.86R
SALT LAKE CITY MOCLDY    42  36  79 SE9       29.90F
LOS ANGELES CA FAIR      60  53  77 SE5       29.89S
BOISE ID       CLOUDY    47  40  76 E7        29.86F
SEATTLE WA     CLOUDY    50  48  93 SW15      29.81R
$$

*** WEATHER ACROSS MANITOBA...SASKATCHEWAN AND ONTARIO ***
                ***ONTARIO***

CITY           SKY/WX    TMP DP  RH WIND       PRES   REMARKS
GERALDTON      FRZ RAIN  16  12  86 NE13G20   29.96F VSB 3/4 WCI   2
THUNDER BAY    FRZ RAIN  27  25  93 NE10G17   29.80F WCI  17
SIOUX LOOKOUT  CLOUDY    19  14  79 VRB6G23   29.96F WCI  11
TORONTO        PTCLDY    48  46  93 E8        29.80F
BIG TROUT LK   CLEAR      5   1  85 NE5       30.29S WCI  -4
PICKLE LAKE    NOT AVBL
DRYDEN         CLOUDY    21  18  86 NE24G35   29.91F WCI   4
KENORA         CLOUDY    23  18  80 NE20G28   29.91S WCI   8
$$
                *** MANITOBA***

CITY           SKY/WX    TMP DP  RH WIND       PRES   REMARKS
BRANDON        MOCLDY    27  18  69 NE16G22   29.99S WCI  14
DAUPHIN        CLEAR     18  14  86 W6        30.08F WCI   9
ISLAND LAKE    CLEAR     12   5  73 E3        30.23S
PILOT MOUND      N/A     27  23  86 N13         N/A  WCI  16
THE PAS        CLEAR     19   7  58 E6        30.17S WCI  11
THOMPSON       CLEAR      1  -8  66 E3        30.26F
WINNIPEG       MOCLDY    28  21  74 NE13      29.97S WCI  18
LYNN LAKE      CLEAR     14   0  52 S6        30.17S WCI   5
CHURCHILL      PTCLDY     3  -4  72 S14       30.26F WCI -15
GILLAM         CLEAR     -6 -13  71 CALM      30.31F
$$
                ***SASKATCHEWAN***

CITY           SKY/WX    TMP DP  RH WIND       PRES   REMARKS
ESTEVAN        PTCLDY    21  18  86 NE7       29.99F WCI  13
KINDERSLEY     FLURRIES  30  28  93 SE18G26   29.84F WCI  18
LLOYDMINSTER   FLURRIES  28  28 100 E12       29.90F WCI  18
PRINCE ALBERT  MOCLDY    27  16  63 E6        30.04F WCI  20
REGINA         MOCLDY    27  18  69 E16       30.00F WCI  14
YORKTON        CLEAR     19  16  86 N7        30.05F WC



USA.gov is the U.S. government's official web portal to all federal, state and local government web resources and services.